owner,sensor,date,latitude,longitude,vertical_datum,sea_water_practical_salinity,qcFlag 
SCCF RECON,ioos:station:SCCF:51:1,2008-07-01T00:00:00Z,26.5545,-82.1715,1.33,36.67,1111122 
SCCF RECON,ioos:station:SCCF:51:1,2008-07-01T01:00:00Z,26.5545,-82.1715,1.44,36.92,1111122 
SCCF RECON,ioos:station:SCCF:51:1,2008-07-01T02:00:00Z,26.5545,-82.1715,1.569,36.97,1111122 
SCCF RECON,ioos:station:SCCF:51:1,2008-07-01T03:00:00Z,26.5545,-82.1715,1.693,37.52,1111122 
SCCF RECON,ioos:station:SCCF:51:1,2008-07-01T04:00:00Z,26.5545,-82.1715,1.772,37.07,1111122 
SCCF RECON,ioos:station:SCCF:51:1,2008-07-01T05:00:00Z,26.5545,-82.1715,1.841,37.29,1111122 
SCCF RECON,ioos:station:SCCF:51:1,2008-07-01T06:00:00Z,26.5545,-82.1715,1.84,37.46,1111122 
SCCF RECON,ioos:station:SCCF:51:1,2008-07-01T07:00:00Z,26.5545,-82.1715,1.79,37.09,1111122 
SCCF RECON,ioos:station:SCCF:51:1,2008-07-01T08:00:00Z,26.5545,-82.1715,1.76,36.92,1111122 
SCCF RECON,ioos:station:SCCF:51:1,2008-07-01T09:00:00Z,26.5545,-82.1715,1.734,36.73,1111122 
SCCF RECON,ioos:station:SCCF:51:1,2008-07-01T10:00:00Z,26.5545,-82.1715,1.788,36.93,1111122 
SCCF RECON,ioos:station:SCCF:51:1,2008-07-01T11:00:00Z,26.5545,-82.1715,1.86,37.27,1111122 
SCCF RECON,ioos:station:SCCF:51:1,2008-07-01T12:00:00Z,26.5545,-82.1715,1.96,37.56,1111122 
SCCF RECON,ioos:station:SCCF:51:1,2008-07-01T13:00:00Z,26.5545,-82.1715,2.08,37.76,1111122 
SCCF RECON,ioos:station:SCCF:51:1,2008-07-01T14:00:00Z,26.5545,-82.1715,2.164,37.76,1111122 
SCCF RECON,ioos:station:SCCF:51:1,2008-07-01T15:00:00Z,26.5545,-82.1715,2.19,37.76,1111122 
SCCF RECON,ioos:station:SCCF:51:1,2008-07-01T16:00:00Z,26.5545,-82.1715,2.17,37.76,1111122 
SCCF RECON,ioos:station:SCCF:51:1,2008-07-01T17:00:00Z,26.5545,-82.1715,2.1,37.75,1111122 
SCCF RECON,ioos:station:SCCF:51:1,2008-07-01T18:00:00Z,26.5545,-82.1715,1.99,37.71,1111122 
SCCF RECON,ioos:station:SCCF:51:1,2008-07-01T19:00:00Z,26.5545,-82.1715,1.856,37.39,1111122 
SCCF RECON,ioos:station:SCCF:51:1,2008-07-01T20:00:00Z,26.5545,-82.1715,1.7,37.18,1111122 
SCCF RECON,ioos:station:SCCF:51:1,2008-07-01T21:00:00Z,26.5545,-82.1715,1.55,37.0,1111122 
SCCF RECON,ioos:station:SCCF:51:1,2008-07-01T22:00:00Z,26.5545,-82.1715,1.411,36.97,1111122 
SCCF RECON,ioos:station:SCCF:51:1,2008-07-01T23:00:00Z,26.5545,-82.1715,1.31,36.6,1111122 
SCCF RECON,ioos:station:SCCF:51:1,2008-07-02T00:00:00Z,26.5545,-82.1715,1.259,36.76,1111122 
SCCF RECON,ioos:station:SCCF:51:1,2008-07-02T01:00:00Z,26.5545,-82.1715,1.289,36.79,1111122 
SCCF RECON,ioos:station:SCCF:51:1,2008-07-02T02:00:00Z,26.5545,-82.1715,1.393,36.79,1111122 
SCCF RECON,ioos:station:SCCF:51:1,2008-07-02T03:00:00Z,26.5545,-82.1715,1.533,36.85,1111122 
SCCF RECON,ioos:station:SCCF:51:1,2008-07-02T04:00:00Z,26.5545,-82.1715,1.66,37.31,1111122 
SCCF RECON,ioos:station:SCCF:51:1,2008-07-02T05:00:00Z,26.5545,-82.1715,1.76,36.99,1111122 
SCCF RECON,ioos:station:SCCF:51:1,2008-07-02T06:00:00Z,26.5545,-82.1715,1.83,37.16,1111122 
SCCF RECON,ioos:station:SCCF:51:1,2008-07-02T07:00:00Z,26.5545,-82.1715,1.868,37.43,1111122 
SCCF RECON,ioos:station:SCCF:51:1,2008-07-02T08:00:00Z,26.5545,-82.1715,1.83,37.24,1111122 
SCCF RECON,ioos:station:SCCF:51:1,2008-07-02T09:00:00Z,26.5545,-82.1715,1.82,37.19,1111122 
SCCF RECON,ioos:station:SCCF:51:1,2008-07-02T10:00:00Z,26.5545,-82.1715,1.81,36.86,1111122 
SCCF RECON,ioos:station:SCCF:51:1,2008-07-02T11:00:00Z,26.5545,-82.1715,1.85,36.91,1111122 
SCCF RECON,ioos:station:SCCF:51:1,2008-07-02T12:00:00Z,26.5545,-82.1715,1.89,37.1,1111122 
SCCF RECON,ioos:station:SCCF:51:1,2008-07-02T13:00:00Z,26.5545,-82.1715,1.97,37.36,1111122 
SCCF RECON,ioos:station:SCCF:51:1,2008-07-02T14:00:00Z,26.5545,-82.1715,2.09,37.59,1111122 
SCCF RECON,ioos:station:SCCF:51:1,2008-07-02T15:00:00Z,26.5545,-82.1715,2.18,37.7,1111122 
SCCF RECON,ioos:station:SCCF:51:1,2008-07-02T16:00:00Z,26.5545,-82.1715,2.2,37.73,1111122 
SCCF RECON,ioos:station:SCCF:51:1,2008-07-02T17:00:00Z,26.5545,-82.1715,2.17,37.72,1111122 
SCCF RECON,ioos:station:SCCF:51:1,2008-07-02T18:00:00Z,26.5545,-82.1715,2.091,37.63,1111122 
SCCF RECON,ioos:station:SCCF:51:1,2008-07-02T19:00:00Z,26.5545,-82.1715,1.983,37.18,1111122 
SCCF RECON,ioos:station:SCCF:51:1,2008-07-02T20:00:00Z,26.5545,-82.1715,1.847,36.97,1111122 
SCCF RECON,ioos:station:SCCF:51:1,2008-07-02T21:00:00Z,26.5545,-82.1715,1.69,36.73,1111122 
SCCF RECON,ioos:station:SCCF:51:1,2008-07-02T22:00:00Z,26.5545,-82.1715,1.548,36.58,1111122 
SCCF RECON,ioos:station:SCCF:51:1,2008-07-02T23:00:00Z,26.5545,-82.1715,1.408,36.49,1111122 
SCCF RECON,ioos:station:SCCF:51:1,2008-07-03T00:00:00Z,26.5545,-82.1715,1.29,36.49,1111122 
SCCF RECON,ioos:station:SCCF:51:1,2008-07-03T01:00:00Z,26.5545,-82.1715,1.22,36.6,1111122 
SCCF RECON,ioos:station:SCCF:51:1,2008-07-03T02:00:00Z,26.5545,-82.1715,1.26,36.7,1111122 
SCCF RECON,ioos:station:SCCF:51:1,2008-07-03T03:00:00Z,26.5545,-82.1715,1.38,36.84,1111122 
SCCF RECON,ioos:station:SCCF:51:1,2008-07-03T04:00:00Z,26.5545,-82.1715,1.54,37.11,1111122 
SCCF RECON,ioos:station:SCCF:51:1,2008-07-03T05:00:00Z,26.5545,-82.1715,1.67,37.34,1111122 
SCCF RECON,ioos:station:SCCF:51:1,2008-07-03T06:00:00Z,26.5545,-82.1715,1.77,37.48,1111122 
SCCF RECON,ioos:station:SCCF:51:1,2008-07-03T07:00:00Z,26.5545,-82.1715,1.84,37.26,1111122 
SCCF RECON,ioos:station:SCCF:51:1,2008-07-03T08:00:00Z,26.5545,-82.1715,1.81,37.22,1111122 
SCCF RECON,ioos:station:SCCF:51:1,2008-07-03T09:00:00Z,26.5545,-82.1715,1.77,36.97,1111122 
SCCF RECON,ioos:station:SCCF:51:1,2008-07-03T10:00:00Z,26.5545,-82.1715,1.74,36.59,1111122 
SCCF RECON,ioos:station:SCCF:51:1,2008-07-03T11:00:00Z,26.5545,-82.1715,1.76,36.65,1111122 
SCCF RECON,ioos:station:SCCF:51:1,2008-07-03T12:00:00Z,26.5545,-82.1715,1.8,36.92,1111122 
SCCF RECON,ioos:station:SCCF:51:1,2008-07-03T13:00:00Z,26.5545,-82.1715,1.89,37.41,1111122 
SCCF RECON,ioos:station:SCCF:51:1,2008-07-03T14:00:00Z,26.5545,-82.1715,1.99,37.65,1111122 
SCCF RECON,ioos:station:SCCF:51:1,2008-07-03T15:00:00Z,26.5545,-82.1715,2.099,37.76,1111122 
SCCF RECON,ioos:station:SCCF:51:1,2008-07-03T16:00:00Z,26.5545,-82.1715,2.2,37.69,1111122 
SCCF RECON,ioos:station:SCCF:51:1,2008-07-03T17:00:00Z,26.5545,-82.1715,2.232,37.7,1111122 
SCCF RECON,ioos:station:SCCF:51:1,2008-07-03T18:00:00Z,26.5545,-82.1715,2.209,37.64,1111122 
SCCF RECON,ioos:station:SCCF:51:1,2008-07-03T19:00:00Z,26.5545,-82.1715,2.151,37.73,1111122 
SCCF RECON,ioos:station:SCCF:51:1,2008-07-03T20:00:00Z,26.5545,-82.1715,2.022,37.49,1111122 
SCCF RECON,ioos:station:SCCF:51:1,2008-07-03T21:00:00Z,26.5545,-82.1715,1.869,36.95,1111122 
SCCF RECON,ioos:station:SCCF:51:1,2008-07-03T22:00:00Z,26.5545,-82.1715,1.7,36.68,1111122 
SCCF RECON,ioos:station:SCCF:51:1,2008-07-03T23:00:00Z,26.5545,-82.1715,1.56,36.48,1111122 
SCCF RECON,ioos:station:SCCF:51:1,2008-07-04T00:00:00Z,26.5545,-82.1715,1.43,36.49,1111122 
SCCF RECON,ioos:station:SCCF:51:1,2008-07-04T01:00:00Z,26.5545,-82.1715,1.33,36.56,1111122 
SCCF RECON,ioos:station:SCCF:51:1,2008-07-04T02:00:00Z,26.5545,-82.1715,1.291,36.6,1111122 
SCCF RECON,ioos:station:SCCF:51:1,2008-07-04T03:00:00Z,26.5545,-82.1715,1.366,36.65,1111122 
SCCF RECON,ioos:station:SCCF:51:1,2008-07-04T04:00:00Z,26.5545,-82.1715,1.493,36.75,1111122 
SCCF RECON,ioos:station:SCCF:51:1,2008-07-04T05:00:00Z,26.5545,-82.1715,1.611,37.14,1111122 
SCCF RECON,ioos:station:SCCF:51:1,2008-07-04T06:00:00Z,26.5545,-82.1715,1.72,37.4,1111122 
SCCF RECON,ioos:station:SCCF:51:1,2008-07-04T07:00:00Z,26.5545,-82.1715,1.78,37.6,1111122 
SCCF RECON,ioos:station:SCCF:51:1,2008-07-04T08:00:00Z,26.5545,-82.1715,1.82,37.29,1111122 
SCCF RECON,ioos:station:SCCF:51:1,2008-07-04T09:00:00Z,26.5545,-82.1715,1.8,37.12,1111122 
SCCF RECON,ioos:station:SCCF:51:1,2008-07-04T10:00:00Z,26.5545,-82.1715,1.75,36.69,1111122 
SCCF RECON,ioos:station:SCCF:51:1,2008-07-04T11:00:00Z,26.5545,-82.1715,1.71,36.57,1111122 
SCCF RECON,ioos:station:SCCF:51:1,2008-07-04T12:00:00Z,26.5545,-82.1715,1.719,36.53,1111122 
SCCF RECON,ioos:station:SCCF:51:1,2008-07-04T13:00:00Z,26.5545,-82.1715,1.76,36.68,1111122 
SCCF RECON,ioos:station:SCCF:51:1,2008-07-04T14:00:00Z,26.5545,-82.1715,1.838,37.01,1111122 
SCCF RECON,ioos:station:SCCF:51:1,2008-07-04T15:00:00Z,26.5545,-82.1715,1.938,37.5,1111122 
SCCF RECON,ioos:station:SCCF:51:1,2008-07-04T16:00:00Z,26.5545,-82.1715,2.055,37.77,1111122 
SCCF RECON,ioos:station:SCCF:51:1,2008-07-04T17:00:00Z,26.5545,-82.1715,2.148,37.79,1111122 
SCCF RECON,ioos:station:SCCF:51:1,2008-07-04T18:00:00Z,26.5545,-82.1715,2.19,37.68,1111122 
SCCF RECON,ioos:station:SCCF:51:1,2008-07-04T19:00:00Z,26.5545,-82.1715,2.16,37.73,1111122 
SCCF RECON,ioos:station:SCCF:51:1,2008-07-04T20:00:00Z,26.5545,-82.1715,2.081,37.74,1111122 
SCCF RECON,ioos:station:SCCF:51:1,2008-07-04T21:00:00Z,26.5545,-82.1715,1.962,37.43,1111122 
SCCF RECON,ioos:station:SCCF:51:1,2008-07-04T22:00:00Z,26.5545,-82.1715,1.826,36.97,1111122 
SCCF RECON,ioos:station:SCCF:51:1,2008-07-04T23:00:00Z,26.5545,-82.1715,1.68,36.73,1111122 
SCCF RECON,ioos:station:SCCF:51:1,2008-07-05T00:00:00Z,26.5545,-82.1715,1.551,36.6,1111122 
SCCF RECON,ioos:station:SCCF:51:1,2008-07-05T01:00:00Z,26.5545,-82.1715,1.44,36.54,1111122 
SCCF RECON,ioos:station:SCCF:51:1,2008-07-05T02:00:00Z,26.5545,-82.1715,1.367,36.58,1111122 
SCCF RECON,ioos:station:SCCF:51:1,2008-07-05T03:00:00Z,26.5545,-82.1715,1.38,36.64,1111122 
SCCF RECON,ioos:station:SCCF:51:1,2008-07-05T04:00:00Z,26.5545,-82.1715,1.48,36.74,1111122 
SCCF RECON,ioos:station:SCCF:51:1,2008-07-05T05:00:00Z,26.5545,-82.1715,1.62,36.93,1111122 
SCCF RECON,ioos:station:SCCF:51:1,2008-07-05T06:00:00Z,26.5545,-82.1715,1.739,37.29,1111122 
SCCF RECON,ioos:station:SCCF:51:1,2008-07-05T07:00:00Z,26.5545,-82.1715,1.82,37.39,1111122 
SCCF RECON,ioos:station:SCCF:51:1,2008-07-05T08:00:00Z,26.5545,-82.1715,1.88,37.07,1111122 
SCCF RECON,ioos:station:SCCF:51:1,2008-07-05T09:00:00Z,26.5545,-82.1715,1.87,37.28,1111122 
SCCF RECON,ioos:station:SCCF:51:1,2008-07-05T10:00:00Z,26.5545,-82.1715,1.85,37.14,1111122 
SCCF RECON,ioos:station:SCCF:51:1,2008-07-05T11:00:00Z,26.5545,-82.1715,1.8,36.86,1111122 
SCCF RECON,ioos:station:SCCF:51:1,2008-07-05T12:00:00Z,26.5545,-82.1715,1.76,36.53,1111122 
SCCF RECON,ioos:station:SCCF:51:1,2008-07-05T13:00:00Z,26.5545,-82.1715,1.74,36.6,1111122 
SCCF RECON,ioos:station:SCCF:51:1,2008-07-05T14:00:00Z,26.5545,-82.1715,1.784,36.74,1111122 
SCCF RECON,ioos:station:SCCF:51:1,2008-07-05T15:00:00Z,26.5545,-82.1715,1.859,36.95,1111122 
SCCF RECON,ioos:station:SCCF:51:1,2008-07-05T16:00:00Z,26.5545,-82.1715,1.952,37.37,1111122 
SCCF RECON,ioos:station:SCCF:51:1,2008-07-05T17:00:00Z,26.5545,-82.1715,2.069,37.7,1111122 
SCCF RECON,ioos:station:SCCF:51:1,2008-07-05T18:00:00Z,26.5545,-82.1715,2.15,37.75,1111122 
SCCF RECON,ioos:station:SCCF:51:1,2008-07-05T19:00:00Z,26.5545,-82.1715,2.17,37.75,1111122 
SCCF RECON,ioos:station:SCCF:51:1,2008-07-05T20:00:00Z,26.5545,-82.1715,2.131,37.71,1111122 
SCCF RECON,ioos:station:SCCF:51:1,2008-07-05T21:00:00Z,26.5545,-82.1715,2.049,37.64,1111122 
SCCF RECON,ioos:station:SCCF:51:1,2008-07-05T22:00:00Z,26.5545,-82.1715,1.963,37.0,1111122 
SCCF RECON,ioos:station:SCCF:51:1,2008-07-05T23:00:00Z,26.5545,-82.1715,1.84,36.66,1111122 
SCCF RECON,ioos:station:SCCF:51:1,2008-07-06T00:00:00Z,26.5545,-82.1715,1.7,36.64,1111122 
SCCF RECON,ioos:station:SCCF:51:1,2008-07-06T01:00:00Z,26.5545,-82.1715,1.559,36.41,1111122 
SCCF RECON,ioos:station:SCCF:51:1,2008-07-06T02:00:00Z,26.5545,-82.1715,1.448,36.37,1111122 
SCCF RECON,ioos:station:SCCF:51:1,2008-07-06T03:00:00Z,26.5545,-82.1715,1.38,36.43,1111122 
SCCF RECON,ioos:station:SCCF:51:1,2008-07-06T04:00:00Z,26.5545,-82.1715,1.44,36.41,1111122 
SCCF RECON,ioos:station:SCCF:51:1,2008-07-06T05:00:00Z,26.5545,-82.1715,1.562,36.37,1111122 
SCCF RECON,ioos:station:SCCF:51:1,2008-07-06T06:00:00Z,26.5545,-82.1715,1.7,37.02,1111122 
SCCF RECON,ioos:station:SCCF:51:1,2008-07-06T07:00:00Z,26.5545,-82.1715,1.83,37.33,1111122 
SCCF RECON,ioos:station:SCCF:51:1,2008-07-06T08:00:00Z,26.5545,-82.1715,1.915,37.42,1111122 
SCCF RECON,ioos:station:SCCF:51:1,2008-07-06T09:00:00Z,26.5545,-82.1715,1.95,37.08,1111122 
SCCF RECON,ioos:station:SCCF:51:1,2008-07-06T10:00:00Z,26.5545,-82.1715,1.91,37.3,1111122 
SCCF RECON,ioos:station:SCCF:51:1,2008-07-06T11:00:00Z,26.5545,-82.1715,1.857,36.71,1111122 
SCCF RECON,ioos:station:SCCF:51:1,2008-07-06T12:00:00Z,26.5545,-82.1715,1.8,36.52,1111122 
SCCF RECON,ioos:station:SCCF:51:1,2008-07-06T13:00:00Z,26.5545,-82.1715,1.75,36.4,1111122 
SCCF RECON,ioos:station:SCCF:51:1,2008-07-06T14:00:00Z,26.5545,-82.1715,1.73,36.35,1111122 
SCCF RECON,ioos:station:SCCF:51:1,2008-07-06T15:00:00Z,26.5545,-82.1715,1.763,36.4,1111122 
SCCF RECON,ioos:station:SCCF:51:1,2008-07-06T16:00:00Z,26.5545,-82.1715,1.834,36.66,1111122 
SCCF RECON,ioos:station:SCCF:51:1,2008-07-06T17:00:00Z,26.5545,-82.1715,1.921,37.37,1111122 
SCCF RECON,ioos:station:SCCF:51:1,2008-07-06T18:00:00Z,26.5545,-82.1715,2.011,37.59,1111122 
SCCF RECON,ioos:station:SCCF:51:1,2008-07-06T19:00:00Z,26.5545,-82.1715,2.08,37.64,1111122 
SCCF RECON,ioos:station:SCCF:51:1,2008-07-06T20:00:00Z,26.5545,-82.1715,2.09,37.55,1111122 
SCCF RECON,ioos:station:SCCF:51:1,2008-07-06T21:00:00Z,26.5545,-82.1715,2.084,37.34,1111122 
SCCF RECON,ioos:station:SCCF:51:1,2008-07-06T22:00:00Z,26.5545,-82.1715,2.0,36.84,1111122 
SCCF RECON,ioos:station:SCCF:51:1,2008-07-06T23:00:00Z,26.5545,-82.1715,1.91,36.47,1111122 
SCCF RECON,ioos:station:SCCF:51:1,2008-07-07T00:00:00Z,26.5545,-82.1715,1.789,36.47,1111122 
SCCF RECON,ioos:station:SCCF:51:1,2008-07-07T01:00:00Z,26.5545,-82.1715,1.68,36.35,1111122 
SCCF RECON,ioos:station:SCCF:51:1,2008-07-07T02:00:00Z,26.5545,-82.1715,1.59,36.32,1111122 
SCCF RECON,ioos:station:SCCF:51:1,2008-07-07T03:00:00Z,26.5545,-82.1715,1.51,36.33,1111122 
SCCF RECON,ioos:station:SCCF:51:1,2008-07-07T04:00:00Z,26.5545,-82.1715,1.5,36.37,1111122 
SCCF RECON,ioos:station:SCCF:51:1,2008-07-07T05:00:00Z,26.5545,-82.1715,1.58,36.38,1111122 
SCCF RECON,ioos:station:SCCF:51:1,2008-07-07T06:00:00Z,26.5545,-82.1715,1.71,36.67,1111122 
SCCF RECON,ioos:station:SCCF:51:1,2008-07-07T07:00:00Z,26.5545,-82.1715,1.84,37.12,1111122 
SCCF RECON,ioos:station:SCCF:51:1,2008-07-07T08:00:00Z,26.5545,-82.1715,1.94,37.33,1111122 
SCCF RECON,ioos:station:SCCF:51:1,2008-07-07T09:00:00Z,26.5545,-82.1715,2.0,37.17,1111122 
SCCF RECON,ioos:station:SCCF:51:1,2008-07-07T10:00:00Z,26.5545,-82.1715,1.988,37.05,1111122 
SCCF RECON,ioos:station:SCCF:51:1,2008-07-07T11:00:00Z,26.5545,-82.1715,1.92,37.05,1111122 
SCCF RECON,ioos:station:SCCF:51:1,2008-07-07T12:00:00Z,26.5545,-82.1715,1.867,36.52,1111122 
SCCF RECON,ioos:station:SCCF:51:1,2008-07-07T13:00:00Z,26.5545,-82.1715,1.81,36.43,1111122 
SCCF RECON,ioos:station:SCCF:51:1,2008-07-07T14:00:00Z,26.5545,-82.1715,1.769,36.36,1111122 
SCCF RECON,ioos:station:SCCF:51:1,2008-07-07T15:00:00Z,26.5545,-82.1715,1.76,36.36,1111122 
SCCF RECON,ioos:station:SCCF:51:1,2008-07-07T16:00:00Z,26.5545,-82.1715,1.78,36.41,1111122 
SCCF RECON,ioos:station:SCCF:51:1,2008-07-07T17:00:00Z,26.5545,-82.1715,1.83,36.59,1111122 
SCCF RECON,ioos:station:SCCF:51:1,2008-07-07T18:00:00Z,26.5545,-82.1715,1.895,36.72,1111122 
SCCF RECON,ioos:station:SCCF:51:1,2008-07-07T19:00:00Z,26.5545,-82.1715,1.98,37.51,1111122 
SCCF RECON,ioos:station:SCCF:51:1,2008-07-07T20:00:00Z,26.5545,-82.1715,2.04,37.35,1111122 
SCCF RECON,ioos:station:SCCF:51:1,2008-07-07T21:00:00Z,26.5545,-82.1715,2.022,36.95,1111122 
SCCF RECON,ioos:station:SCCF:51:1,2008-07-07T22:00:00Z,26.5545,-82.1715,1.98,36.64,1111122 
SCCF RECON,ioos:station:SCCF:51:1,2008-07-07T23:00:00Z,26.5545,-82.1715,1.92,36.65,1111122 
SCCF RECON,ioos:station:SCCF:51:1,2008-07-08T00:00:00Z,26.5545,-82.1715,1.86,36.47,1111122 
SCCF RECON,ioos:station:SCCF:51:1,2008-07-08T01:00:00Z,26.5545,-82.1715,1.78,36.46,1111122 
SCCF RECON,ioos:station:SCCF:51:1,2008-07-08T02:00:00Z,26.5545,-82.1715,1.68,36.42,1111122 
SCCF RECON,ioos:station:SCCF:51:1,2008-07-08T03:00:00Z,26.5545,-82.1715,1.633,36.35,1111122 
SCCF RECON,ioos:station:SCCF:51:1,2008-07-08T04:00:00Z,26.5545,-82.1715,1.582,36.29,1111122 
SCCF RECON,ioos:station:SCCF:51:1,2008-07-08T05:00:00Z,26.5545,-82.1715,1.56,36.26,1111122 
SCCF RECON,ioos:station:SCCF:51:1,2008-07-08T06:00:00Z,26.5545,-82.1715,1.611,36.29,1111122 
SCCF RECON,ioos:station:SCCF:51:1,2008-07-08T07:00:00Z,26.5545,-82.1715,1.72,36.39,1111122 
SCCF RECON,ioos:station:SCCF:51:1,2008-07-08T08:00:00Z,26.5545,-82.1715,1.85,37.13,1111122 
SCCF RECON,ioos:station:SCCF:51:1,2008-07-08T09:00:00Z,26.5545,-82.1715,1.95,36.99,1111122 
SCCF RECON,ioos:station:SCCF:51:1,2008-07-08T10:00:00Z,26.5545,-82.1715,1.99,37.04,1111122 
SCCF RECON,ioos:station:SCCF:51:1,2008-07-08T11:00:00Z,26.5545,-82.1715,1.97,37.28,1111122 
SCCF RECON,ioos:station:SCCF:51:1,2008-07-08T12:00:00Z,26.5545,-82.1715,1.922,36.85,1111122 
SCCF RECON,ioos:station:SCCF:51:1,2008-07-08T13:00:00Z,26.5545,-82.1715,1.86,36.51,1111122 
SCCF RECON,ioos:station:SCCF:51:1,2008-07-08T14:00:00Z,26.5545,-82.1715,1.791,36.39,1111122 
SCCF RECON,ioos:station:SCCF:51:1,2008-07-08T15:00:00Z,26.5545,-82.1715,1.722,36.3,1111122 
SCCF RECON,ioos:station:SCCF:51:1,2008-07-08T16:00:00Z,26.5545,-82.1715,1.67,36.29,1111122 
SCCF RECON,ioos:station:SCCF:51:1,2008-07-08T17:00:00Z,26.5545,-82.1715,1.68,36.3,1111122 
SCCF RECON,ioos:station:SCCF:51:1,2008-07-08T18:00:00Z,26.5545,-82.1715,1.739,36.4,1111122 
SCCF RECON,ioos:station:SCCF:51:1,2008-07-08T19:00:00Z,26.5545,-82.1715,1.813,36.5,1111122 
SCCF RECON,ioos:station:SCCF:51:1,2008-07-08T20:00:00Z,26.5545,-82.1715,1.902,37.36,1111122 
SCCF RECON,ioos:station:SCCF:51:1,2008-07-08T21:00:00Z,26.5545,-82.1715,1.99,37.04,1111122 
SCCF RECON,ioos:station:SCCF:51:1,2008-07-08T22:00:00Z,26.5545,-82.1715,1.99,37.23,1111122 
SCCF RECON,ioos:station:SCCF:51:1,2008-07-08T23:00:00Z,26.5545,-82.1715,1.95,37.07,1111122 
SCCF RECON,ioos:station:SCCF:51:1,2008-07-09T00:00:00Z,26.5545,-82.1715,1.891,36.52,1111122 
SCCF RECON,ioos:station:SCCF:51:1,2008-07-09T01:00:00Z,26.5545,-82.1715,1.83,36.39,1111122 
SCCF RECON,ioos:station:SCCF:51:1,2008-07-09T02:00:00Z,26.5545,-82.1715,1.75,36.34,1111122 
SCCF RECON,ioos:station:SCCF:51:1,2008-07-09T03:00:00Z,26.5545,-82.1715,1.69,36.32,1111122 
SCCF RECON,ioos:station:SCCF:51:1,2008-07-09T04:00:00Z,26.5545,-82.1715,1.64,36.31,1111122 
SCCF RECON,ioos:station:SCCF:51:1,2008-07-09T05:00:00Z,26.5545,-82.1715,1.647,36.33,1111122 
SCCF RECON,ioos:station:SCCF:51:1,2008-07-09T06:00:00Z,26.5545,-82.1715,1.71,36.38,1111122 
SCCF RECON,ioos:station:SCCF:51:1,2008-07-09T07:00:00Z,26.5545,-82.1715,1.79,36.49,1111122 
SCCF RECON,ioos:station:SCCF:51:1,2008-07-09T08:00:00Z,26.5545,-82.1715,1.894,37.33,1111122 
SCCF RECON,ioos:station:SCCF:51:1,2008-07-09T09:00:00Z,26.5545,-82.1715,1.97,37.32,1111122 
SCCF RECON,ioos:station:SCCF:51:1,2008-07-09T10:00:00Z,26.5545,-82.1715,2.007,37.23,1111122 
SCCF RECON,ioos:station:SCCF:51:1,2008-07-09T11:00:00Z,26.5545,-82.1715,1.99,37.24,1111122 
SCCF RECON,ioos:station:SCCF:51:1,2008-07-09T12:00:00Z,26.5545,-82.1715,1.958,36.78,1111122 
SCCF RECON,ioos:station:SCCF:51:1,2008-07-09T13:00:00Z,26.5545,-82.1715,1.92,36.81,1111122 
SCCF RECON,ioos:station:SCCF:51:1,2008-07-09T14:00:00Z,26.5545,-82.1715,1.852,36.61,1111122 
SCCF RECON,ioos:station:SCCF:51:1,2008-07-09T15:00:00Z,26.5545,-82.1715,1.781,36.41,1111122 
SCCF RECON,ioos:station:SCCF:51:1,2008-07-09T16:00:00Z,26.5545,-82.1715,1.745,36.48,1111122 
SCCF RECON,ioos:station:SCCF:51:1,2008-07-09T17:00:00Z,26.5545,-82.1715,1.651,36.45,1111122 
SCCF RECON,ioos:station:SCCF:51:1,2008-07-09T18:00:00Z,26.5545,-82.1715,1.63,36.47,1111122 
SCCF RECON,ioos:station:SCCF:51:1,2008-07-09T19:00:00Z,26.5545,-82.1715,1.67,36.47,1111122 
SCCF RECON,ioos:station:SCCF:51:1,2008-07-09T20:00:00Z,26.5545,-82.1715,1.765,36.5,1111122 
SCCF RECON,ioos:station:SCCF:51:1,2008-07-09T21:00:00Z,26.5545,-82.1715,1.818,36.98,1111122 
SCCF RECON,ioos:station:SCCF:51:1,2008-07-09T22:00:00Z,26.5545,-82.1715,1.87,37.18,1111122 
SCCF RECON,ioos:station:SCCF:51:1,2008-07-09T23:00:00Z,26.5545,-82.1715,1.937,37.0,1111122 
SCCF RECON,ioos:station:SCCF:51:1,2008-07-10T00:00:00Z,26.5545,-82.1715,1.91,37.03,1111122 
SCCF RECON,ioos:station:SCCF:51:1,2008-07-10T01:00:00Z,26.5545,-82.1715,1.85,36.68,1111122 
SCCF RECON,ioos:station:SCCF:51:1,2008-07-10T02:00:00Z,26.5545,-82.1715,1.79,36.46,1111122 
SCCF RECON,ioos:station:SCCF:51:1,2008-07-10T03:00:00Z,26.5545,-82.1715,1.77,36.46,1111122 
SCCF RECON,ioos:station:SCCF:51:1,2008-07-10T04:00:00Z,26.5545,-82.1715,1.76,36.44,1111122 
SCCF RECON,ioos:station:SCCF:51:1,2008-07-10T05:00:00Z,26.5545,-82.1715,1.77,36.46,1111122 
SCCF RECON,ioos:station:SCCF:51:1,2008-07-10T06:00:00Z,26.5545,-82.1715,1.8,36.47,1111122 
SCCF RECON,ioos:station:SCCF:51:1,2008-07-10T07:00:00Z,26.5545,-82.1715,1.84,36.63,1111122 
SCCF RECON,ioos:station:SCCF:51:1,2008-07-10T08:00:00Z,26.5545,-82.1715,1.894,36.87,1111122 
SCCF RECON,ioos:station:SCCF:51:1,2008-07-10T09:00:00Z,26.5545,-82.1715,1.97,37.3,1111122 
SCCF RECON,ioos:station:SCCF:51:1,2008-07-10T10:00:00Z,26.5545,-82.1715,2.04,37.46,1111122 
SCCF RECON,ioos:station:SCCF:51:1,2008-07-10T11:00:00Z,26.5545,-82.1715,2.08,37.45,1111122 
SCCF RECON,ioos:station:SCCF:51:1,2008-07-10T12:00:00Z,26.5545,-82.1715,2.07,37.35,1111122 
SCCF RECON,ioos:station:SCCF:51:1,2008-07-10T13:00:00Z,26.5545,-82.1715,2.02,37.16,1111122 
SCCF RECON,ioos:station:SCCF:51:1,2008-07-10T14:00:00Z,26.5545,-82.1715,1.96,36.67,1111122 
SCCF RECON,ioos:station:SCCF:51:1,2008-07-10T15:00:00Z,26.5545,-82.1715,1.871,36.63,1111122 
SCCF RECON,ioos:station:SCCF:51:1,2008-07-10T16:00:00Z,26.5545,-82.1715,1.79,36.52,1111122 
SCCF RECON,ioos:station:SCCF:51:1,2008-07-10T17:00:00Z,26.5545,-82.1715,1.71,36.46,1111122 
SCCF RECON,ioos:station:SCCF:51:1,2008-07-10T18:00:00Z,26.5545,-82.1715,1.649,36.47,1111122 
SCCF RECON,ioos:station:SCCF:51:1,2008-07-10T19:00:00Z,26.5545,-82.1715,1.62,36.59,1111122 
SCCF RECON,ioos:station:SCCF:51:1,2008-07-10T20:00:00Z,26.5545,-82.1715,1.66,36.7,1111122 
SCCF RECON,ioos:station:SCCF:51:1,2008-07-10T21:00:00Z,26.5545,-82.1715,1.707,36.65,1111122 
SCCF RECON,ioos:station:SCCF:51:1,2008-07-10T22:00:00Z,26.5545,-82.1715,1.77,36.7,1111122 
SCCF RECON,ioos:station:SCCF:51:1,2008-07-10T23:00:00Z,26.5545,-82.1715,1.83,36.95,1111122 
SCCF RECON,ioos:station:SCCF:51:1,2008-07-11T00:00:00Z,26.5545,-82.1715,1.849,37.06,1111122 
SCCF RECON,ioos:station:SCCF:51:1,2008-07-11T01:00:00Z,26.5545,-82.1715,1.869,37.03,1111122 
SCCF RECON,ioos:station:SCCF:51:1,2008-07-11T02:00:00Z,26.5545,-82.1715,1.88,36.76,1111122 
SCCF RECON,ioos:station:SCCF:51:1,2008-07-11T03:00:00Z,26.5545,-82.1715,1.87,36.71,1111122 
SCCF RECON,ioos:station:SCCF:51:1,2008-07-11T04:00:00Z,26.5545,-82.1715,1.87,36.71,1111122 
SCCF RECON,ioos:station:SCCF:51:1,2008-07-11T05:00:00Z,26.5545,-82.1715,1.86,36.71,1111122 
SCCF RECON,ioos:station:SCCF:51:1,2008-07-11T06:00:00Z,26.5545,-82.1715,1.85,36.7,1111122 
SCCF RECON,ioos:station:SCCF:51:1,2008-07-11T07:00:00Z,26.5545,-82.1715,1.87,36.72,1111122 
SCCF RECON,ioos:station:SCCF:51:1,2008-07-11T08:00:00Z,26.5545,-82.1715,1.92,36.84,1111122 
SCCF RECON,ioos:station:SCCF:51:1,2008-07-11T09:00:00Z,26.5545,-82.1715,1.98,37.07,1111122 
SCCF RECON,ioos:station:SCCF:51:1,2008-07-11T10:00:00Z,26.5545,-82.1715,2.04,37.24,1111122 
SCCF RECON,ioos:station:SCCF:51:1,2008-07-11T11:00:00Z,26.5545,-82.1715,2.08,37.45,1111122 
SCCF RECON,ioos:station:SCCF:51:1,2008-07-11T12:00:00Z,26.5545,-82.1715,2.08,37.29,1111122 
SCCF RECON,ioos:station:SCCF:51:1,2008-07-11T13:00:00Z,26.5545,-82.1715,2.05,37.14,1111122 
SCCF RECON,ioos:station:SCCF:51:1,2008-07-11T14:00:00Z,26.5545,-82.1715,2.0,37.01,1111122 
SCCF RECON,ioos:station:SCCF:51:1,2008-07-11T15:00:00Z,26.5545,-82.1715,1.94,36.76,1111122 
SCCF RECON,ioos:station:SCCF:51:1,2008-07-11T16:00:00Z,26.5545,-82.1715,1.86,36.72,1111122 
SCCF RECON,ioos:station:SCCF:51:1,2008-07-11T17:00:00Z,26.5545,-82.1715,1.77,36.65,1111122 
SCCF RECON,ioos:station:SCCF:51:1,2008-07-11T18:00:00Z,26.5545,-82.1715,1.67,36.67,1111122 